Location: Eppenbrunn
(49.1158°N, 7.5601°E)
Time: 07:15:48
(UTC+00:00)

Cosmos 2233 Rocket - Pass Details

Date: 09 April 2020
Orbit: 952 x 991 km, 82.9° (Epoch: 02 June)

Event Time Altitude Azimuth Distance (km) Brightness Sun altitude
Rises 23:39:58 0° 351° (N) 3,703 8.1 -32.8°
Reaches altitude 10° 23:42:31 10° 352° (N) 2,746 7.2 -32.8°
Enters shadow 23:47:59 67° 13° (NNE) 1,053 4.2 -32.7°
